Briefing drone pour Dijon (LFSD)

Rechercher une autre localisation

Conditions de vol :


Nous sommes le : Mardi 16 août 2022
Il est 01:58 UTC (03:58 LT)

Lever de soleil : 04:11 UTC (06:11 LT)
Coucher de soleil : 19:16 UTC (21:16 LT)

Météo

L'essentiel des conditions de vol

VIGILANCE MÉTÉO FRANCE - Côte-dOr (21)
Vigilance Jaune : Orages
CARTE TEMSI
CARTES DES FRONTS
METAR de LFSD
LFSD 160130Z AUTO 11001KT 4400 1200 R35/1400D BR NSC 15/15 Q1010

Date d'émission: 16/08/2022
Heure d'émission: 01:30 UTC
Vent: 110° pour 1 KT (2 km/h)
Visibilité horizontale: 4400/1200 m
Plafond : Pas de nuages significatifs (NSC)
Température: 15 °C
Point de rosée: 15 °C
Humidité: 100%
Pression (QNH): 1010 hPa
Conditions: Brume
TAF de LFSD
LFSD 010600Z 0100/0124 CNL

Conditions prévues :

Heure d'émission : Bulletin éffectué le 01 à 00:00 UTC
Prévision : Valide du 01 a 00:00 UTC au 01 a 23:59 UTC
Nuages : à 0ft (0 m)
WEBCAM POUR DIJON

Réglementation

Voler en sécurité

CARTES AERONAUTIQUE 1/500.000
CARTE AZBA (Reseau basse altitude)
CARTES VAC (LFSD)
SUP AIP




Chargement des AIP...
NOTAM (DIJON + Terrain à proximité / FIR )




Chargement des NOTAMS...
CONTACT PREFECTURE 21
Côte-dOr (21) : pref-drone@cote-dor.gouv.fr


Avertissement : Les données mises à disposition sont indicatives. Oxygène Drone ne pourra être tenu responsable de dégâts causés aux biens et aux personnes.